WetterOnline ( https://www.wetteronline.ch )

Wetter aktuell Gießen

Aktuelles Wetter: Gießen (195m)

6-stündlich | Neueste Meldungen
Ortszeit Temperatur Wetter
Do, 21.11. 19:00 4.0° C leicht bewölkt
Do, 21.11. 13:00 4.2° C bewölkt
Do, 21.11. 7:00 0.8° C bedeckt
Do, 21.11. 1:00 -2.1° C fast wolkenlos
Mi, 20.11. 19:00 1.1° C wolkenlos
Mi, 20.11. 13:00 3.7° C leicht bewölkt
Mi, 20.11. 7:00 1.4° C bedeckt
Mi, 20.11. 1:00 2.7° C bedeckt
Ortszeit Temperatur Wetter
Fr, 22.11. 0:30 1.8° C leicht bewölkt
Fr, 22.11. 0:20 1.8° C leicht bewölkt
Fr, 22.11. 0:10 1.5° C fast wolkenlos
Fr, 22.11. 0:00 1.9° C wolkenlos
Do, 21.11. 23:50 1.9° C wolkenlos
Do, 21.11. 23:40 1.3° C fast wolkenlos
Do, 21.11. 23:30 2.1° C wolkenlos
Do, 21.11. 23:00 1.9° C leicht bewölkt
Do, 21.11. 22:30 2.7° C wolkig
Do, 21.11. 22:00 3.3° C bewölkt
Do, 21.11. 21:30 3.3° C wolkig
Ortszeit Relative Feuchte Sichtweite
Do, 21.11. 19:00 89% 9 km
Do, 21.11. 13:00 90% 10 km
Do, 21.11. 7:00 99% 3.0 km
Do, 21.11. 1:00 99% 3.8 km
Mi, 20.11. 19:00 91% 17 km
Mi, 20.11. 13:00 81% 35 km
Mi, 20.11. 7:00 98% 10 km
Mi, 20.11. 1:00 94% 13 km
Ortszeit Relative Feuchte Sichtweite
Fr, 22.11. 0:30 100% 4.7 km
Fr, 22.11. 0:20 100% -
Fr, 22.11. 0:10 100% -
Fr, 22.11. 0:00 99% 4.0 km
Do, 21.11. 23:50 99% -
Do, 21.11. 23:40 96% -
Do, 21.11. 23:30 99% 4.3 km
Do, 21.11. 23:00 96% 4.1 km
Do, 21.11. 22:30 96% 4.2 km
Do, 21.11. 22:00 95% 6 km
Do, 21.11. 21:30 95% 6 km
Ortszeit Niederschlagsmenge Niederschlagsart
Do, 21.11. 19:00 0.1 l/m2 in 12 Std. Regen
Do, 21.11. 13:00 0.0 l/m2 in 6 Std. -
Do, 21.11. 7:00 0.0 l/m2 in 12 Std. -
Do, 21.11. 1:00 0.0 l/m2 in 6 Std. -
Mi, 20.11. 19:00 0.0 l/m2 in 12 Std. -
Mi, 20.11. 13:00 0.0 l/m2 in 6 Std. -
Mi, 20.11. 7:00 0.1 l/m2 in 12 Std. -
Mi, 20.11. 1:00 0.1 l/m2 in 6 Std. Regen
Ortszeit Niederschlagsmenge Niederschlagsart
Fr, 22.11. 0:30 0.0 l/m2 in 1 Std. -
Fr, 22.11. 0:20 keine Meldung -
Fr, 22.11. 0:10 keine Meldung -
Fr, 22.11. 0:00 0.0 l/m2 in 1 Std. -
Do, 21.11. 23:50 keine Meldung -
Do, 21.11. 23:40 keine Meldung -
Do, 21.11. 23:30 0.0 l/m2 in 1 Std. -
Do, 21.11. 23:00 0.0 l/m2 in 1 Std. -
Do, 21.11. 22:30 0.0 l/m2 in 1 Std. -
Do, 21.11. 22:00 0.1 l/m2 in 1 Std. Regen
Do, 21.11. 21:30 0.1 l/m2 in 1 Std. Schneeregen
Ortszeit Stärke Spitze Richtung
km/h Bft. km/h Grad Sektor
Do, 21.11. 19:00 4 1 11 130° SO
Do, 21.11. 13:00 4 1 7 180° S
Do, 21.11. 7:00 4 1 18 280° W
Do, 21.11. 1:00 7 2 13 40° NO
Mi, 20.11. 19:00 7 2 18 60° NO
Mi, 20.11. 13:00 11 2 22 50° NO
Mi, 20.11. 7:00 4 1 11 260° W
Mi, 20.11. 1:00 4 1 14 260° W
Ortszeit Stärke Spitze Richtung
km/h Bft. km/h Grad Sektor
Fr, 22.11. 0:30 6 1 6 360° N
Fr, 22.11. 0:20 6 1 - 360° N
Fr, 22.11. 0:10 6 1 - 350° N
Fr, 22.11. 0:00 7 2 11 40° NO
Do, 21.11. 23:50 7 2 - 40° NO
Do, 21.11. 23:40 7 2 - 40° NO
Do, 21.11. 23:30 4 1 7 40° NO
Do, 21.11. 23:00 7 2 7 40° NO
Do, 21.11. 22:30 7 2 7 50° NO
Do, 21.11. 22:00 4 1 7 50° NO
Do, 21.11. 21:30 4 1 7 30° NO
Ortszeit Untergrenze Bedeckung Gattung
total tief tief mittel hoch
Do, 21.11. 19:00 2700 m 4/8 4/8 - - -
Do, 21.11. 13:00 210 m 8/8 6/8 - - -
Do, 21.11. 7:00 90 m 8/8 8/8 - - -
Do, 21.11. 1:00 60 m 0/8 0/8 - - -
Mi, 20.11. 19:00 - 0/8 0/8 - - -
Mi, 20.11. 13:00 900 m 2/8 2/8 - - -
Mi, 20.11. 7:00 390 m 8/8 8/8 - - -
Mi, 20.11. 1:00 510 m 8/8 8/8 - - -
Ortszeit Bedeckungsgrad in Achtel und Wolkenuntergrenze
Fr, 22.11. 0:30 4(270m)
Fr, 22.11. 0:20 4(270m)
Fr, 22.11. 0:10 1(300m)
Fr, 22.11. 0:00 keine Wolken
Do, 21.11. 23:50 keine Wolken
Do, 21.11. 23:40 1(8100m)
Do, 21.11. 23:30 1(8100m)
Do, 21.11. 23:00 1(8400m) 3(9000m)
Do, 21.11. 22:30 5(2700m)
Do, 21.11. 22:00 2(2100m) 7(2700m) 7(3900m)
Do, 21.11. 21:30 1(1800m) 5(2700m) 6(3600m)
Ortszeit Luftdruck NN (hPa) Tendenz (hPa in 3 Std.)
Do, 21.11. 19:00 1010 + 0,1
Do, 21.11. 13:00 1010 - 1,1
Do, 21.11. 7:00 1012 - 0,9
Do, 21.11. 1:00 1015 - 1,4
Mi, 20.11. 19:00 1017 - 0,4
Mi, 20.11. 13:00 1018 - 1,1
Mi, 20.11. 7:00 1020 - 0,3
Mi, 20.11. 1:00 1020 + 0,3
Ortszeit Luftdruck NN (hPa) Tendenz (hPa in 3 Std.)
Fr, 22.11. 0:30 1010 - 0,2
Fr, 22.11. 0:20 1010 keine Meldung
Fr, 22.11. 0:10 1010 keine Meldung
Fr, 22.11. 0:00 1010 - 0,3
Do, 21.11. 23:50 1010 keine Meldung
Do, 21.11. 23:40 1010 keine Meldung
Do, 21.11. 23:30 1010 + 0,1
Do, 21.11. 23:00 1010 - 0,1
Do, 21.11. 22:30 1010 - 0,2
Do, 21.11. 22:00 1010 - 0,1
Do, 21.11. 21:30 1010 - 0,1
Ortszeit Schneehöhe (cm)
Do, 21.11. 19:00 0
Do, 21.11. 13:00 0
Do, 21.11. 7:00 0
Do, 21.11. 1:00 0
Mi, 20.11. 19:00 0
Mi, 20.11. 13:00 0
Mi, 20.11. 7:00 0
Mi, 20.11. 1:00 0
Ortszeit Schneehöhe (cm)
Fr, 22.11. 0:30 0
Fr, 22.11. 0:20 0
Fr, 22.11. 0:10 0
Fr, 22.11. 0:00 0
Do, 21.11. 23:50 0
Do, 21.11. 23:40 0
Do, 21.11. 23:30 0
Do, 21.11. 23:00 0
Do, 21.11. 22:30 0
Do, 21.11. 22:00 0
Do, 21.11. 21:30 0
Link zu dieser Seite / Seite empfehlen

Das Wetter in ...